Regional Weather Roundup
Issued by NWS

Home | Current Version | Previous Version | Graphics & Text | Print | Product List | Glossary On
Versions: 1 2 3 4 5 6 7 8 9 10 11 12 13 14 15 16 17 18 19 20 21 22 23 24 25 26 27 28 29 30 31 32 33 34 35 36 37 38 39 40 41 42 43 44 45 46 47 48 49 50
516
ASUS43 KFSD 272010
RWRSD

WEATHER ROUNDUP FOR SOUTH DAKOTA
NATIONAL WEATHER SERVICE SIOUX FALLS SD
300 PM CDT THU JUL 27 2017

NOTE: "FAIR" INDICATES FEW OR NO CLOUDS BELOW 12,000 FEET WITH NO
SIGNIFICANT WEATHER AND/OR OBSTRUCTIONS TO VISIBILITY.


SDZ001>005-009-010-012>017-272100-
NORTHWEST AND NORTH CENTRAL SOUTH DAKOTA

CITY           SKY/WX    TMP DP  RH WIND       PRES   REMARKS
BUFFALO          N/A     72  54  53 S26G38    30.01R
FAITH            N/A     85  52  32 S23       30.07F
MOBRIDGE       SUNNY     85  62  46 S9        30.07F
$$

SDZ012>016-024>037-041>051-057-063-072>074-272100-
SOUTHWEST AND SOUTH CENTRAL SOUTH DAKOTA

CITY           SKY/WX    TMP DP  RH WIND       PRES   REMARKS
RAPID CTY ARPT PTSUNNY   73  53  49 S18G29    30.14F
PIERRE         MOSUNNY   87  56  34 E15       30.07F
CUSTER         CLOUDY    61  54  77 SE14      30.23F
ELLSWORTH AFB  PTSUNNY   73  52  46 S26G38    30.13S
PHILIP         CLOUDY    84  51  31 SE13G23   30.08F
PINE RIDGE     CLOUDY    72  54  53 E15       30.14F
SPEARFISH      LGT RAIN  88  59  37 SW20G28   30.02F
WINNER         FAIR      86  56  35 E8        30.11F
$$

SDZ004>011-016>023-039-040-272100-
NORTHEAST SOUTH DAKOTA

CITY           SKY/WX    TMP DP  RH WIND       PRES   REMARKS
ABERDEEN       SUNNY     82  59  45 VRB7      30.10F
WATERTOWN      PTSUNNY   79  59  50 N3        30.11F
BROOKINGS      MOSUNNY   79  62  56 NE7       30.12F
SISSETON         N/A     83  60  45 VRB6      30.10F
$$

SDZ017-020-022-023-036>040-048>070-272100-
SOUTHEAST SOUTH DAKOTA

CITY           SKY/WX    TMP DP  RH WIND       PRES   REMARKS
SIOUX FALLS    MOSUNNY   84  63  49 VRB7      30.09F
HURON          SUNNY     82  59  45 VRB5      30.10F
CHAMBERLAIN    SUNNY     85  58  39 E7        30.10F
MITCHELL       MOSUNNY   83  61  47 E6        30.10F
YANKTON        MOSUNNY   80  61  52 E6        30.09F
$$

ABBREVIATIONS USED IN REMARKS
   TC - TEMPERATURE IN CELSIUS
  WCI - WIND CHILL INDEX
   HX - HEAT INDEX
  VSB - VISIBILITY





USA.gov is the U.S. government's official web portal to all federal, state and local government web resources and services.